Darstellungsparameter: Aktuell verwendete Einstellungen:
Skalierung der Graphiken ... ?
xyx+y,   Skalierungsfaktor:      Skalierung: Modus: x, Faktor: 1
Darstellungszeitraum ... ?
Vom - - bis: - -   Zeitraum: 14.05.2010 - 20.05.2010
Min/Max/Avg-Anzeige ... ?
Zeige MMA aktuell
Zeige MMA Monat
Zeige MMA alles
Zeige --A aktuell
Zeige --A Monat
Zeige --A alles
Keine MMA-Anzeige
MMA:
Average (ber die Originaldaten)
MMA-Basis: 14.05.2010 - 20.05.2010
Quicknavigation für Darstellung... ?
Tage:      1T, 2T, 3T, 5T -1T -2T -3T -5T +1T +2T +3T +5T
Wochen: 1W, 2W, 3W -1W -2W -3W +1W +2W +3W
Monate: 1M, 3M, 6M -1M -3M -6M +1M +3M +6M
Jahre:    1J, 3J, 5J, 10J -1J -3J -5J -10J +1J +3J +5J +10J
Nutze für die Darstellung ... ?
Originaldaten oder Mittelwerte auf ...
Stundenbasis Tagesbasis Wochenbasis
Monatsbasis Jahresbasis      Datenbasis: Original-Daten
Darstellen als:
Statistik (Auto) Statistik J:M      Darstellung:
Zur Graphik,    zurück zur Übersicht aller Sensoren.
 
Tabellarische Datenbersicht: ?
 
Sensor: Nr:Datum:Temp:Abs-Feuchte:Windchill:Wind:
Aussen-T/F 1 14-05-2010 00:06:03 7 C 7.05 g/m*3 7 C 0 km/h
2 14-05-2010 00:18:03 6.9 C 7.16 g/m*3 6.9 C 0 km/h
3 14-05-2010 00:30:03 6.9 C 7.16 g/m*3 6.9 C 0 km/h
4 14-05-2010 00:42:03 7 C 7.21 g/m*3 7 C 0 km/h
5 14-05-2010 00:54:03 7 C 7.21 g/m*3 7 C 0 km/h
6 14-05-2010 01:06:03 6.9 C 7.24 g/m*3 6.9 C 0 km/h
7 14-05-2010 01:18:03 7 C 7.21 g/m*3 7 C 0 km/h
8 14-05-2010 01:30:03 7.1 C 7.25 g/m*3 7.1 C 0 km/h
9 14-05-2010 01:42:03 7.1 C 7.25 g/m*3 7.1 C 0 km/h
10 14-05-2010 01:54:03 7.1 C 7.25 g/m*3 7.1 C 0 km/h
11 14-05-2010 02:06:03 7.1 C 7.25 g/m*3 7.1 C 0 km/h
12 14-05-2010 02:18:03 7 C 7.21 g/m*3 7 C 0 km/h
13 14-05-2010 02:30:03 6.9 C 7.24 g/m*3 6.9 C 0 km/h
14 14-05-2010 02:42:03 7 C 7.21 g/m*3 7 C 0 km/h
15 14-05-2010 02:54:03 7 C 7.28 g/m*3 7 C 0 km/h
16 14-05-2010 03:06:03 7 C 7.28 g/m*3 7 C 0 km/h
17 14-05-2010 03:18:03 6.9 C 7.24 g/m*3 6.9 C 0 km/h
18 14-05-2010 03:30:04 7 C 7.28 g/m*3 7 C 0 km/h
19 14-05-2010 03:42:04 7 C 7.28 g/m*3 7 C 0 km/h
20 14-05-2010 03:54:04 7 C 7.28 g/m*3 7 C 0 km/h
21 14-05-2010 04:06:04 7 C 7.28 g/m*3 7 C 0 km/h
22 14-05-2010 04:18:04 7 C 7.28 g/m*3 7 C 0 km/h
23 14-05-2010 04:30:04 6.9 C 7.24 g/m*3 6.9 C 0 km/h
24 14-05-2010 04:42:04 6.9 C 7.24 g/m*3 6.9 C 0 km/h
25 14-05-2010 04:54:04 6.9 C 7.24 g/m*3 6.9 C 0 km/h
Sensor: Nr:Datum:Temp:Abs-Feuchte:Windchill:Wind:
Aussen-T/F 26 14-05-2010 05:06:04 6.8 C 7.19 g/m*3 6.8 C 0 km/h
27 14-05-2010 05:18:04 6.9 C 7.24 g/m*3 6.9 C 0 km/h
28 14-05-2010 05:30:04 6.8 C 7.27 g/m*3 6.8 C 0 km/h
29 14-05-2010 05:42:04 6.9 C 7.31 g/m*3 6.9 C 0 km/h
30 14-05-2010 05:54:04 7 C 7.28 g/m*3 7 C 0 km/h
31 14-05-2010 06:06:04 7.1 C 7.33 g/m*3 7.1 C 0 km/h
32 14-05-2010 06:18:04 7.1 C 7.33 g/m*3 7.1 C 0 km/h
33 14-05-2010 06:30:04 7 C 7.28 g/m*3 7 C 0 km/h
34 14-05-2010 06:42:04 7.1 C 7.33 g/m*3 7.1 C 0 km/h
35 14-05-2010 06:54:04 7.2 C 7.38 g/m*3 7.2 C 0 km/h
36 14-05-2010 07:06:02 7.2 C 7.3 g/m*3 7.2 C 0 km/h
37 14-05-2010 07:18:02 7.3 C 7.35 g/m*3 7.3 C 0 km/h
38 14-05-2010 07:30:02 7.5 C 7.44 g/m*3 7.5 C 0 km/h
39 14-05-2010 07:42:02 7.5 C 7.44 g/m*3 7.5 C 0 km/h
40 14-05-2010 07:54:01 7.5 C 7.36 g/m*3 7.5 C 0 km/h
41 14-05-2010 08:06:02 7.7 C 7.38 g/m*3 7.7 C 0 km/h
42 14-05-2010 08:18:01 7.9 C 7.47 g/m*3 7.9 C 0 km/h
43 14-05-2010 08:30:01 8.1 C 7.41 g/m*3 8.1 C 0 km/h
44 14-05-2010 08:42:02 7.9 C 7.31 g/m*3 7.9 C 0 km/h
45 14-05-2010 08:54:02 8 C 7.19 g/m*3 8 C 0 km/h
46 14-05-2010 09:06:02 8 C 7.19 g/m*3 8 C 0 km/h
47 14-05-2010 09:18:01 7.9 C 7.15 g/m*3 7.9 C 0 km/h
48 14-05-2010 09:30:01 8 C 7.03 g/m*3 8 C 0 km/h
49 14-05-2010 09:42:02 8.6 C 7.39 g/m*3 8.6 C 0 km/h
50 14-05-2010 09:54:02 8.4 C 7.13 g/m*3 8.4 C 0 km/h
Sensor: Nr:Datum:Temp:Abs-Feuchte:Windchill:Wind:
Aussen-T/F 51 14-05-2010 10:06:02 8.7 C 7.18 g/m*3 8.7 C 0 km/h
52 14-05-2010 10:18:02 9.4 C 7.33 g/m*3 9.4 C 0 km/h
53 14-05-2010 10:30:02 9.5 C 7.01 g/m*3 9.5 C 0 km/h
54 14-05-2010 10:42:02 10 C 7.24 g/m*3 10 C 0 km/h
55 14-05-2010 10:54:01 10.3 C 7.18 g/m*3 10.3 C 0 km/h
56 14-05-2010 11:06:02 11 C 7.31 g/m*3 11 C 0 km/h
57 14-05-2010 11:18:02 10.5 C 6.6 g/m*3 10.5 C 0 km/h
58 14-05-2010 11:30:02 10.1 C 6.34 g/m*3 10.1 C 0 km/h
59 14-05-2010 11:42:02 10.4 C 6.75 g/m*3 10.4 C 0 km/h
60 14-05-2010 11:54:02 9.9 C 6.82 g/m*3 9.9 C 0 km/h
61 14-05-2010 12:06:01 9.1 C 6.39 g/m*3 9.1 C 0 km/h
62 14-05-2010 12:18:02 9 C 6.44 g/m*3 9 C 0 km/h
63 14-05-2010 12:30:02 9.3 C 7.1 g/m*3 9.3 C 0 km/h
64 14-05-2010 12:42:01 9.3 C 7.28 g/m*3 9.3 C 0 km/h
65 14-05-2010 12:54:02 9.1 C 7.28 g/m*3 9.1 C 0 km/h
66 14-05-2010 13:06:01 9.3 C 7.46 g/m*3 9.3 C 0 km/h
67 14-05-2010 13:18:01 9.5 C 7.65 g/m*3 9.5 C 0 km/h
68 14-05-2010 13:30:01 9.6 C 7.69 g/m*3 9.6 C 0 km/h
69 14-05-2010 13:42:02 9.7 C 7.74 g/m*3 9.7 C 0 km/h
70 14-05-2010 13:54:02 9.2 C 7.41 g/m*3 9.2 C 0 km/h
71 14-05-2010 14:06:01 9 C 7.41 g/m*3 9 C 0 km/h
72 14-05-2010 14:18:02 9.2 C 7.59 g/m*3 9.2 C 0 km/h
73 14-05-2010 14:30:02 9.5 C 7.74 g/m*3 9.5 C 0 km/h
74 14-05-2010 14:42:02 9.7 C 7.84 g/m*3 9.7 C 0 km/h
75 14-05-2010 14:54:02 10.5 C 8.15 g/m*3 10.5 C 0 km/h
Sensor: Nr:Datum:Temp:Abs-Feuchte:Windchill:Wind:
Aussen-T/F 76 14-05-2010 15:06:02 11.2 C 8.21 g/m*3 11.2 C 0 km/h
77 14-05-2010 15:18:01 11.7 C 7.95 g/m*3 11.7 C 0 km/h
78 14-05-2010 15:30:01 12 C 7.67 g/m*3 12 C 0 km/h
79 14-05-2010 15:42:02 12.2 C 7.23 g/m*3 12.2 C 0 km/h
80 14-05-2010 15:54:02 12.2 C 6.91 g/m*3 12.2 C 0 km/h
81 14-05-2010 16:06:02 12.6 C 6.97 g/m*3 12.6 C 0 km/h
82 14-05-2010 16:18:01 12.8 C 7.06 g/m*3 12.8 C 0 km/h
83 14-05-2010 16:30:01 13.3 C 6.93 g/m*3 13.3 C 0 km/h
84 14-05-2010 16:42:02 13.4 C 6.63 g/m*3 13.4 C 0 km/h
85 14-05-2010 16:54:02 12.8 C 6.27 g/m*3 12.8 C 0 km/h
86 14-05-2010 17:06:02 12.2 C 6.37 g/m*3 12.2 C 0 km/h
87 14-05-2010 17:18:02 11.9 C 6.25 g/m*3 11.9 C 0 km/h
88 14-05-2010 17:30:02 11.4 C 6.77 g/m*3 11.4 C 0 km/h
89 14-05-2010 17:42:02 11 C 6.81 g/m*3 11 C 0 km/h
90 14-05-2010 17:54:02 11.2 C 6.79 g/m*3 11.2 C 0 km/h
91 14-05-2010 18:06:02 11.5 C 6.71 g/m*3 11.5 C 0 km/h
92 14-05-2010 18:18:03 11.8 C 6.74 g/m*3 11.8 C 0 km/h
93 14-05-2010 18:30:03 12 C 6.82 g/m*3 12 C 0 km/h
94 14-05-2010 18:42:02 11.5 C 6.71 g/m*3 11.5 C 0 km/h
95 14-05-2010 18:54:02 11 C 6.81 g/m*3 11 C 0 km/h
96 14-05-2010 19:06:02 10.5 C 6.89 g/m*3 10.5 C 0 km/h
97 14-05-2010 19:18:03 10.3 C 6.99 g/m*3 10.3 C 0 km/h
98 14-05-2010 19:30:03 10.4 C 7.13 g/m*3 10.4 C 0 km/h
99 14-05-2010 19:42:02 10.5 C 6.98 g/m*3 10.5 C 0 km/h
100 14-05-2010 19:54:02 10.6 C 7.03 g/m*3 10.6 C 0 km/h
Sensor: Nr:Datum:Temp:Abs-Feuchte:Windchill:Wind:
Aussen-T/F 101 14-05-2010 20:06:02 10.5 C 7.08 g/m*3 10.5 C 0 km/h
102 14-05-2010 20:18:02 10.2 C 6.95 g/m*3 10.2 C 0 km/h
103 14-05-2010 20:30:02 9.9 C 6.91 g/m*3 9.9 C 0 km/h
104 14-05-2010 20:42:02 9.6 C 6.78 g/m*3 9.6 C 0 km/h
105 14-05-2010 20:54:02 9.5 C 6.92 g/m*3 9.5 C 0 km/h
106 14-05-2010 21:06:02 9.3 C 6.83 g/m*3 9.3 C 0 km/h
107 14-05-2010 21:18:02 9.2 C 6.88 g/m*3 9.2 C 0 km/h
108 14-05-2010 21:30:02 9.1 C 6.83 g/m*3 9.1 C 0 km/h
109 14-05-2010 21:42:02 9.1 C 6.92 g/m*3 9.1 C 0 km/h
110 14-05-2010 21:54:02 9 C 6.88 g/m*3 9 C 0 km/h
111 14-05-2010 22:06:02 9.1 C 7.01 g/m*3 9.1 C 0 km/h
112 14-05-2010 22:18:02 9.1 C 7.01 g/m*3 9.1 C 0 km/h
113 14-05-2010 22:30:02 9.1 C 7.1 g/m*3 9.1 C 0 km/h
114 14-05-2010 22:42:02 9.1 C 7.1 g/m*3 9.1 C 0 km/h
115 14-05-2010 22:55:03 9 C 7.14 g/m*3 9 C 0 km/h
116 14-05-2010 23:07:03 8.6 C 7.13 g/m*3 8.6 C 0 km/h
117 14-05-2010 23:19:03 8.2 C 7.12 g/m*3 8.2 C 0 km/h
118 14-05-2010 23:31:03 8.2 C 7.2 g/m*3 8.2 C 0 km/h
119 14-05-2010 23:43:03 8.1 C 7.16 g/m*3 8.1 C 0 km/h
120 14-05-2010 23:55:03 8.1 C 7.24 g/m*3 8.1 C 0 km/h
121 15-05-2010 00:07:03 8 C 7.19 g/m*3 8 C 0 km/h
122 15-05-2010 00:19:03 8 C 7.19 g/m*3 8 C 0 km/h
123 15-05-2010 00:31:04 7.9 C 7.23 g/m*3 7.9 C 0 km/h
124 15-05-2010 00:43:04 7.8 C 7.18 g/m*3 7.8 C 0 km/h
125 15-05-2010 00:55:04 7.8 C 7.18 g/m*3 7.8 C 0 km/h
Sensor: Nr:Datum:Temp:Abs-Feuchte:Windchill:Wind:
Aussen-T/F 126 15-05-2010 01:07:04 7.9 C 7.23 g/m*3 7.9 C 0 km/h
127 15-05-2010 01:19:04 7.8 C 7.18 g/m*3 7.8 C 0 km/h
128 15-05-2010 01:31:04 7.6 C 7.09 g/m*3 7.6 C 0 km/h
129 15-05-2010 01:43:04 7.6 C 7.09 g/m*3 7.6 C 0 km/h
130 15-05-2010 01:55:04 7.6 C 7.09 g/m*3 7.6 C 0 km/h
131 15-05-2010 02:07:04 7.5 C 7.04 g/m*3 7.5 C 0 km/h
132 15-05-2010 02:19:04 7.5 C 7.12 g/m*3 7.5 C 0 km/h
133 15-05-2010 02:31:04 7.6 C 7.17 g/m*3 7.6 C 0 km/h
134 15-05-2010 02:43:04 7.8 C 7.26 g/m*3 7.8 C 0 km/h
135 15-05-2010 02:55:04 7.8 C 7.26 g/m*3 7.8 C 0 km/h
136 15-05-2010 03:07:04 7.6 C 7.17 g/m*3 7.6 C 0 km/h
137 15-05-2010 03:19:04 7.6 C 7.17 g/m*3 7.6 C 0 km/h
138 15-05-2010 03:31:04 7.6 C 7.25 g/m*3 7.6 C 0 km/h
139 15-05-2010 03:43:04 7.6 C 7.25 g/m*3 7.6 C 0 km/h
140 15-05-2010 03:55:04 7.6 C 7.25 g/m*3 7.6 C 0 km/h
141 15-05-2010 04:07:04 7.6 C 7.25 g/m*3 7.6 C 0 km/h
142 15-05-2010 04:19:04 7.7 C 7.3 g/m*3 7.7 C 0 km/h
143 15-05-2010 04:31:04 7.6 C 7.25 g/m*3 7.6 C 0 km/h
144 15-05-2010 04:43:05 7.6 C 7.25 g/m*3 7.6 C 0 km/h
145 15-05-2010 04:55:05 7.5 C 7.2 g/m*3 7.5 C 0 km/h
146 15-05-2010 05:07:05 7.4 C 7.24 g/m*3 7.4 C 0 km/h
147 15-05-2010 05:19:05 7.3 C 7.19 g/m*3 7.3 C 0 km/h
148 15-05-2010 05:31:05 7.3 C 7.19 g/m*3 7.3 C 0 km/h
149 15-05-2010 05:43:05 7.2 C 7.14 g/m*3 7.2 C 0 km/h
150 15-05-2010 05:55:05 7.1 C 7.1 g/m*3 7.1 C 0 km/h
Sensor: Nr:Datum:Temp:Abs-Feuchte:Windchill:Wind:
Aussen-T/F 151 15-05-2010 06:07:05 7.1 C 7.1 g/m*3 7.1 C 0 km/h
152 15-05-2010 06:19:05 7.1 C 7.1 g/m*3 7.1 C 0 km/h
153 15-05-2010 06:31:05 7.1 C 7.18 g/m*3 7.1 C 0 km/h
154 15-05-2010 06:43:05 7.1 C 7.18 g/m*3 7.1 C 0 km/h
155 15-05-2010 06:55:05 7.1 C 7.18 g/m*3 7.1 C 0 km/h
156 15-05-2010 07:07:05 7.1 C 7.18 g/m*3 7.1 C 0 km/h
157 15-05-2010 07:19:05 7.4 C 7.32 g/m*3 7.4 C 0 km/h
158 15-05-2010 07:31:05 7.5 C 7.36 g/m*3 7.5 C 0 km/h
159 15-05-2010 07:43:05 7.8 C 7.51 g/m*3 7.8 C 0 km/h
160 15-05-2010 07:55:02 8.2 C 7.62 g/m*3 8.2 C 0 km/h
161 15-05-2010 08:07:02 8.3 C 7.59 g/m*3 8.3 C 0 km/h
162 15-05-2010 08:19:02 8.2 C 7.29 g/m*3 8.2 C 0 km/h
163 15-05-2010 08:31:03 8.6 C 7.39 g/m*3 8.6 C 0 km/h
164 15-05-2010 08:43:03 8.5 C 7 g/m*3 8.5 C 0 km/h
165 15-05-2010 08:55:02 8.8 C 7.05 g/m*3 8.8 C 0 km/h
166 15-05-2010 09:07:02 9 C 6.88 g/m*3 9 C 0 km/h
167 15-05-2010 09:19:02 9.3 C 6.92 g/m*3 9.3 C 0 km/h
168 15-05-2010 09:31:02 9.5 C 6.83 g/m*3 9.5 C 0 km/h
169 15-05-2010 09:43:02 9.6 C 6.78 g/m*3 9.6 C 0 km/h
170 15-05-2010 09:55:01 10 C 6.67 g/m*3 10 C 0 km/h
171 15-05-2010 10:07:02 10.5 C 6.6 g/m*3 10.5 C 0 km/h
172 15-05-2010 10:19:01 10.7 C 6.48 g/m*3 10.7 C 0 km/h
173 15-05-2010 10:31:02 10.6 C 6.34 g/m*3 10.6 C 0 km/h
174 15-05-2010 10:43:02 11.1 C 6.35 g/m*3 11.1 C 0 km/h
175 15-05-2010 10:55:02 11.1 C 6.35 g/m*3 11.1 C 0 km/h
Sensor: Nr:Datum:Temp:Abs-Feuchte:Windchill:Wind:
Aussen-T/F 176 15-05-2010 11:07:02 10.9 C 6.27 g/m*3 10.9 C 0 km/h
177 15-05-2010 11:19:01 10.8 C 6.23 g/m*3 10.8 C 0 km/h
178 15-05-2010 11:31:02 10.9 C 6.17 g/m*3 10.9 C 0 km/h
179 15-05-2010 11:43:02 11.5 C 5.89 g/m*3 11.5 C 0 km/h
180 15-05-2010 11:55:02 11.9 C 6.04 g/m*3 11.9 C 0 km/h
181 15-05-2010 12:07:02 11.2 C 5.68 g/m*3 11.2 C 0 km/h
182 15-05-2010 12:19:02 11.1 C 5.64 g/m*3 11.1 C 0 km/h
183 15-05-2010 12:31:02 11.2 C 5.57 g/m*3 11.2 C 0 km/h
184 15-05-2010 12:43:02 12.4 C 5.46 g/m*3 12.4 C 0 km/h
185 15-05-2010 12:55:02 12.3 C 4.78 g/m*3 12.3 C 0 km/h
186 15-05-2010 13:07:02 13.9 C 5.04 g/m*3 13.9 C 0 km/h
187 15-05-2010 13:19:03 12 C 4.58 g/m*3 12 C 0 km/h
188 15-05-2010 13:31:02 11.1 C 5.14 g/m*3 11.1 C 0 km/h
189 15-05-2010 13:43:02 11.2 C 4.87 g/m*3 11.2 C 0 km/h
190 15-05-2010 13:55:02 12.1 C 4.5 g/m*3 12.1 C 0 km/h
191 15-05-2010 14:07:02 13.7 C 4.5 g/m*3 13.7 C 0 km/h
192 15-05-2010 14:19:02 15 C 4.62 g/m*3 15 C 0 km/h
193 15-05-2010 14:31:02 14.7 C 4.15 g/m*3 14.7 C 0 km/h
194 15-05-2010 14:43:02 14 C 3.98 g/m*3 14 C 0 km/h
195 15-05-2010 14:55:01 13.9 C 3.72 g/m*3 13.9 C 0 km/h
196 15-05-2010 15:07:01 14.3 C 3.56 g/m*3 14.3 C 0 km/h
197 15-05-2010 15:19:01 15.2 C 3.24 g/m*3 15.2 C 0 km/h
198 15-05-2010 15:31:01 15.8 C 2.69 g/m*3 15.8 C 0 km/h
199 15-05-2010 15:43:01 16 C 2.72 g/m*3 16 C 0 km/h
200 15-05-2010 15:55:01 16.2 C 2.76 g/m*3 16.2 C 0 km/h
Sensor: Nr:Datum:Temp:Abs-Feuchte:Windchill:Wind:
Aussen-T/F 201 15-05-2010 16:07:02 16.2 C 2.76 g/m*3 16.2 C 0 km/h
202 15-05-2010 16:19:01 15.1 C 2.58 g/m*3 15.1 C 0 km/h
203 15-05-2010 16:31:01 14.4 C 2.47 g/m*3 14.4 C 0 km/h
204 15-05-2010 16:43:01 14.4 C 2.97 g/m*3 14.4 C 0 km/h
205 15-05-2010 16:55:01 13.8 C 2.98 g/m*3 13.8 C 0 km/h
206 15-05-2010 17:07:02 13.9 C 3.12 g/m*3 13.9 C 0 km/h
207 15-05-2010 17:19:01 14 C 3.02 g/m*3 14 C 0 km/h
208 15-05-2010 17:31:02 14.1 C 3.16 g/m*3 14.1 C 0 km/h
209 15-05-2010 17:43:02 14 C 3.26 g/m*3 14 C 0 km/h
210 15-05-2010 17:55:02 14 C 3.26 g/m*3 14 C 0 km/h
211 15-05-2010 18:07:02 13.7 C 3.43 g/m*3 13.7 C 0 km/h
212 15-05-2010 18:19:01 14 C 3.62 g/m*3 14 C 0 km/h
213 15-05-2010 18:31:02 13.8 C 3.46 g/m*3 13.8 C 0 km/h
214 15-05-2010 18:43:02 13.7 C 3.43 g/m*3 13.7 C 0 km/h
215 15-05-2010 18:55:02 13.9 C 3.36 g/m*3 13.9 C 0 km/h
216 15-05-2010 19:07:02 13.9 C 3.24 g/m*3 13.9 C 0 km/h
217 15-05-2010 19:19:02 14.6 C 3.5 g/m*3 14.6 C 0 km/h
218 15-05-2010 19:31:02 15.1 C 3.23 g/m*3 15.1 C 0 km/h
219 15-05-2010 19:43:02 14.9 C 3.44 g/m*3 14.9 C 0 km/h
220 15-05-2010 19:55:02 14.4 C 3.58 g/m*3 14.4 C 0 km/h
221 15-05-2010 20:07:02 13.9 C 4.2 g/m*3 13.9 C 0 km/h
222 15-05-2010 20:19:02 13.3 C 4.62 g/m*3 13.3 C 0 km/h
223 15-05-2010 20:31:02 12.4 C 4.48 g/m*3 12.4 C 0 km/h
224 15-05-2010 20:43:02 11.6 C 4.47 g/m*3 11.6 C 0 km/h
225 15-05-2010 20:55:02 11.3 C 4.59 g/m*3 11.3 C 0 km/h
Sensor: Nr:Datum:Temp:Abs-Feuchte:Windchill:Wind:
Aussen-T/F 226 15-05-2010 21:07:02 11.4 C 4.62 g/m*3 11.4 C 0 km/h
227 15-05-2010 21:19:02 11.1 C 4.53 g/m*3 11.1 C 0 km/h
228 15-05-2010 21:31:02 10.8 C 4.55 g/m*3 10.8 C 0 km/h
229 15-05-2010 21:43:02 10.8 C 4.84 g/m*3 10.8 C 0 km/h
230 15-05-2010 21:55:01 10.8 C 4.84 g/m*3 10.8 C 0 km/h
231 15-05-2010 22:07:02 10.8 C 4.94 g/m*3 10.8 C 0 km/h
232 15-05-2010 22:19:02 11 C 5 g/m*3 11 C 0 km/h
233 15-05-2010 22:32:02 11.1 C 4.83 g/m*3 11.1 C 0 km/h
234 15-05-2010 22:44:03 11.2 C 4.66 g/m*3 11.2 C 0 km/h
235 15-05-2010 22:56:03 11.2 C 4.66 g/m*3 11.2 C 0 km/h
236 15-05-2010 23:08:03 11.1 C 4.73 g/m*3 11.1 C 0 km/h
237 15-05-2010 23:20:03 10.9 C 4.97 g/m*3 10.9 C 0 km/h
238 15-05-2010 23:32:03 10.9 C 5.07 g/m*3 10.9 C 0 km/h
239 15-05-2010 23:44:03 10.8 C 5.04 g/m*3 10.8 C 0 km/h
240 15-05-2010 23:56:03 10.5 C 5.04 g/m*3 10.5 C 0 km/h
241 16-05-2010 00:08:03 10.2 C 5.04 g/m*3 10.2 C 0 km/h
242 16-05-2010 00:20:03 10.1 C 5.3 g/m*3 10.1 C 0 km/h
243 16-05-2010 00:32:03 10.1 C 5.39 g/m*3 10.1 C 0 km/h
244 16-05-2010 00:44:03 10 C 5.45 g/m*3 10 C 0 km/h
245 16-05-2010 00:56:03 10.1 C 5.48 g/m*3 10.1 C 0 km/h
246 16-05-2010 01:08:03 10 C 5.54 g/m*3 10 C 0 km/h
247 16-05-2010 01:20:03 9.7 C 5.62 g/m*3 9.7 C 0 km/h
248 16-05-2010 01:32:03 9.3 C 5.66 g/m*3 9.3 C 0 km/h
249 16-05-2010 01:44:03 9 C 5.64 g/m*3 9 C 0 km/h
250 16-05-2010 01:56:03 8.7 C 5.88 g/m*3 8.7 C 0 km/h
Sensor: Nr:Datum:Temp:Abs-Feuchte:Windchill:Wind:
Aussen-T/F 251 16-05-2010 02:08:03 8.4 C 5.85 g/m*3 8.4 C 0 km/h
252 16-05-2010 02:20:03 8.2 C 5.86 g/m*3 8.2 C 0 km/h
253 16-05-2010 02:32:03 8 C 5.87 g/m*3 8 C 0 km/h
254 16-05-2010 02:44:04 7.8 C 5.96 g/m*3 7.8 C 0 km/h
255 16-05-2010 02:56:04 7.8 C 5.88 g/m*3 7.8 C 0 km/h
256 16-05-2010 03:08:04 7.6 C 5.88 g/m*3 7.6 C 0 km/h
257 16-05-2010 03:20:04 7.4 C 5.88 g/m*3 7.4 C 0 km/h
258 16-05-2010 03:32:04 7.4 C 5.88 g/m*3 7.4 C 0 km/h
259 16-05-2010 03:44:04 7.5 C 5.92 g/m*3 7.5 C 0 km/h
260 16-05-2010 03:56:04 7.5 C 5.92 g/m*3 7.5 C 0 km/h
261 16-05-2010 04:08:04 7.6 C 5.96 g/m*3 7.6 C 0 km/h
262 16-05-2010 04:20:04 7.6 C 5.88 g/m*3 7.6 C 0 km/h
263 16-05-2010 04:32:04 7.6 C 5.96 g/m*3 7.6 C 0 km/h
264 16-05-2010 04:44:04 7.6 C 5.96 g/m*3 7.6 C 0 km/h
265 16-05-2010 04:56:04 7.6 C 5.96 g/m*3 7.6 C 0 km/h
266 16-05-2010 05:08:04 7.6 C 5.96 g/m*3 7.6 C 0 km/h
267 16-05-2010 05:20:04 7.5 C 5.92 g/m*3 7.5 C 0 km/h
268 16-05-2010 05:32:04 7.2 C 5.89 g/m*3 7.2 C 0 km/h
269 16-05-2010 05:44:04 7 C 5.89 g/m*3 7 C 0 km/h
270 16-05-2010 05:56:04 7.2 C 5.97 g/m*3 7.2 C 0 km/h
271 16-05-2010 06:08:04 7.4 C 6.04 g/m*3 7.4 C 0 km/h
272 16-05-2010 06:20:04 7.4 C 5.96 g/m*3 7.4 C 0 km/h
273 16-05-2010 06:32:04 7.4 C 5.96 g/m*3 7.4 C 0 km/h
274 16-05-2010 06:44:04 7.4 C 5.96 g/m*3 7.4 C 0 km/h
275 16-05-2010 06:56:05 7.5 C 6 g/m*3 7.5 C 0 km/h
Sensor: Nr:Datum:Temp:Abs-Feuchte:Windchill:Wind:
Aussen-T/F 276 16-05-2010 07:08:05 7.7 C 6.08 g/m*3 7.7 C 0 km/h
277 16-05-2010 07:20:05 7.8 C 6.04 g/m*3 7.8 C 0 km/h
278 16-05-2010 07:32:05 7.9 C 6.08 g/m*3 7.9 C 0 km/h
279 16-05-2010 07:44:05 7.9 C 6.08 g/m*3 7.9 C 0 km/h
280 16-05-2010 07:56:05 7.9 C 6.08 g/m*3 7.9 C 0 km/h
281 16-05-2010 08:08:05 8 C 6.04 g/m*3 8 C 0 km/h
282 16-05-2010 08:20:05 8.2 C 6.2 g/m*3 8.2 C 0 km/h
283 16-05-2010 08:32:05 8.7 C 6.14 g/m*3 8.7 C 0 km/h
284 16-05-2010 08:44:05 9.1 C 6.03 g/m*3 9.1 C 0 km/h
285 16-05-2010 08:56:05 9.6 C 6.05 g/m*3 9.6 C 0 km/h
286 16-05-2010 09:08:02 10.2 C 5.8 g/m*3 10.2 C 0 km/h
287 16-05-2010 09:20:01 10.6 C 4.98 g/m*3 10.6 C 0 km/h
288 16-05-2010 09:32:02 11 C 4.7 g/m*3 11 C 0 km/h
289 16-05-2010 09:44:02 11.3 C 4.39 g/m*3 11.3 C 0 km/h
290 16-05-2010 09:56:02 11.7 C 4.39 g/m*3 11.7 C 0 km/h
291 16-05-2010 10:08:02 11.9 C 4.24 g/m*3 11.9 C 0 km/h
292 16-05-2010 10:20:01 12.2 C 4.1 g/m*3 12.2 C 0 km/h
293 16-05-2010 10:32:02 12.4 C 4.15 g/m*3 12.4 C 0 km/h
294 16-05-2010 10:44:02 13 C 4.31 g/m*3 13 C 0 km/h
295 16-05-2010 10:56:01 13.3 C 4.16 g/m*3 13.3 C 0 km/h
296 16-05-2010 11:08:02 13.7 C 4.03 g/m*3 13.7 C 0 km/h
297 16-05-2010 11:20:02 14.3 C 4.05 g/m*3 14.3 C 0 km/h
298 16-05-2010 11:32:02 15.4 C 4.07 g/m*3 15.4 C 0 km/h
299 16-05-2010 11:44:02 15.4 C 3.94 g/m*3 15.4 C 0 km/h
300 16-05-2010 11:56:01 15.4 C 3.81 g/m*3 15.4 C 0 km/h
Sensor: Nr:Datum:Temp:Abs-Feuchte:Windchill:Wind:
Aussen-T/F 301 16-05-2010 12:08:02 15.9 C 3.52 g/m*3 15.9 C 0 km/h
302 16-05-2010 12:20:02 16.1 C 3.84 g/m*3 16.1 C 0 km/h
303 16-05-2010 12:32:02 17.9 C 3.82 g/m*3 17.9 C 0 km/h
304 16-05-2010 12:44:02 17.2 C 3.37 g/m*3 17.2 C 0 km/h
305 16-05-2010 12:56:01 16.1 C 3.43 g/m*3 16.1 C 0 km/h
306 16-05-2010 13:08:02 18.3 C 3.6 g/m*3 18.3 C 0 km/h
307 16-05-2010 13:20:02 17.3 C 3.39 g/m*3 17.3 C 0 km/h
308 16-05-2010 13:32:01 17.4 C 3.41 g/m*3 17.4 C 0 km/h
309 16-05-2010 13:44:01 18 C 3.69 g/m*3 18 C 0 km/h
310 16-05-2010 13:56:02 17.3 C 3.54 g/m*3 17.3 C 0 km/h
311 16-05-2010 14:08:01 16.7 C 3.55 g/m*3 16.7 C 0 km/h
312 16-05-2010 14:20:02 18.4 C 3.93 g/m*3 18.4 C 0 km/h
313 16-05-2010 14:32:02 18.4 C 3.3 g/m*3 18.4 C 0 km/h
314 16-05-2010 14:44:02 17.9 C 3.51 g/m*3 17.9 C 0 km/h
315 16-05-2010 14:56:02 18.2 C 3.42 g/m*3 18.2 C 0 km/h
316 16-05-2010 15:08:02 19 C 3.26 g/m*3 19 C 0 km/h
317 16-05-2010 15:20:02 19.3 C 3.32 g/m*3 19.3 C 0 km/h
318 16-05-2010 15:32:02 19.8 C 3.42 g/m*3 19.8 C 0 km/h
319 16-05-2010 15:44:02 19.1 C 3.28 g/m*3 19.1 C 0 km/h
320 16-05-2010 15:56:02 20.3 C 3.52 g/m*3 20.3 C 0 km/h
321 16-05-2010 16:08:02 21 C 3.66 g/m*3 21 C 0 km/h
322 16-05-2010 16:20:01 20.1 C 3.48 g/m*3 20.1 C 0 km/h
323 16-05-2010 16:32:02 20.4 C 3.54 g/m*3 20.4 C 0 km/h
324 16-05-2010 16:44:02 20 C 3.46 g/m*3 20 C 0 km/h
325 16-05-2010 16:56:02 21.2 C 3.71 g/m*3 21.2 C 0 km/h
Sensor: Nr:Datum:Temp:Abs-Feuchte:Windchill:Wind:
Aussen-T/F 326 16-05-2010 17:08:02 21.7 C 3.82 g/m*3 21.7 C 0 km/h
327 16-05-2010 17:20:02 21.1 C 3.69 g/m*3 21.1 C 0 km/h
328 16-05-2010 17:32:02 21.5 C 3.77 g/m*3 21.5 C 0 km/h
329 16-05-2010 17:44:02 21.4 C 3.75 g/m*3 21.4 C 0 km/h
330 16-05-2010 17:56:02 20.8 C 3.62 g/m*3 20.8 C 0 km/h
331 16-05-2010 18:08:02 20.8 C 3.62 g/m*3 20.8 C 0 km/h
332 16-05-2010 18:20:02 20 C 3.46 g/m*3 20 C 0 km/h
333 16-05-2010 18:32:02 19.5 C 3.52 g/m*3 19.5 C 0 km/h
334 16-05-2010 18:44:02 18.9 C 3.56 g/m*3 18.9 C 0 km/h
335 16-05-2010 18:56:02 19.9 C 3.44 g/m*3 19.9 C 0 km/h
336 16-05-2010 19:08:02 19.7 C 3.57 g/m*3 19.7 C 0 km/h
337 16-05-2010 19:20:03 19.5 C 3.52 g/m*3 19.5 C 0 km/h
338 16-05-2010 19:32:02 18.6 C 3.5 g/m*3 18.6 C 0 km/h
339 16-05-2010 19:44:02 18.2 C 3.89 g/m*3 18.2 C 0 km/h
340 16-05-2010 19:56:02 18.3 C 3.91 g/m*3 18.3 C 0 km/h
341 16-05-2010 20:08:02 19.3 C 4.15 g/m*3 19.3 C 0 km/h
342 16-05-2010 20:20:02 19.3 C 4.48 g/m*3 19.3 C 0 km/h
343 16-05-2010 20:32:02 18.2 C 4.51 g/m*3 18.2 C 0 km/h
344 16-05-2010 20:44:02 17 C 4.63 g/m*3 17 C 0 km/h
345 16-05-2010 20:56:02 16 C 4.5 g/m*3 16 C 0 km/h
346 16-05-2010 21:08:02 15.1 C 4.52 g/m*3 15.1 C 0 km/h
347 16-05-2010 21:20:02 14.6 C 4.63 g/m*3 14.6 C 0 km/h
348 16-05-2010 21:32:02 14.2 C 4.76 g/m*3 14.2 C 0 km/h
349 16-05-2010 21:44:02 13.9 C 4.92 g/m*3 13.9 C 0 km/h
350 16-05-2010 21:56:02 13.6 C 5.18 g/m*3 13.6 C 0 km/h
Sensor: Nr:Datum:Temp:Abs-Feuchte:Windchill:Wind:
Aussen-T/F 351 16-05-2010 22:08:02 13.2 C 5.05 g/m*3 13.2 C 0 km/h
352 16-05-2010 22:20:03 12.6 C 5.31 g/m*3 12.6 C 0 km/h
353 16-05-2010 22:33:03 12.3 C 5.32 g/m*3 12.3 C 0 km/h
354 16-05-2010 22:45:03 11.9 C 5.4 g/m*3 11.9 C 0 km/h
355 16-05-2010 22:57:03 11.8 C 5.58 g/m*3 11.8 C 0 km/h
356 16-05-2010 23:09:03 11.4 C 5.65 g/m*3 11.4 C 0 km/h
357 16-05-2010 23:21:03 11 C 5.71 g/m*3 11 C 0 km/h
358 16-05-2010 23:33:03 10.7 C 5.8 g/m*3 10.7 C 0 km/h
359 16-05-2010 23:45:03 10.7 C 5.89 g/m*3 10.7 C 0 km/h
360 16-05-2010 23:57:03 10.5 C 6.01 g/m*3 10.5 C 0 km/h
361 17-05-2010 00:09:03 10.3 C 6.03 g/m*3 10.3 C 0 km/h
362 17-05-2010 00:21:03 10.4 C 5.98 g/m*3 10.4 C 0 km/h
363 17-05-2010 00:33:03 10 C 5.92 g/m*3 10 C 0 km/h
364 17-05-2010 00:45:03 10 C 5.92 g/m*3 10 C 0 km/h
365 17-05-2010 00:57:03 9.9 C 5.98 g/m*3 9.9 C 0 km/h
366 17-05-2010 01:09:03 9.8 C 5.85 g/m*3 9.8 C 0 km/h
367 17-05-2010 01:21:04 9.7 C 5.99 g/m*3 9.7 C 0 km/h
368 17-05-2010 01:33:04 9.3 C 6.02 g/m*3 9.3 C 0 km/h
369 17-05-2010 01:45:04 9 C 5.99 g/m*3 9 C 0 km/h
370 17-05-2010 01:57:04 9 C 6.08 g/m*3 9 C 0 km/h
371 17-05-2010 02:09:04 8.7 C 6.14 g/m*3 8.7 C 0 km/h
372 17-05-2010 02:21:04 8.6 C 6.1 g/m*3 8.6 C 0 km/h
373 17-05-2010 02:33:04 8.6 C 6.19 g/m*3 8.6 C 0 km/h
374 17-05-2010 02:45:04 8.5 C 6.15 g/m*3 8.5 C 0 km/h
375 17-05-2010 02:57:04 8.4 C 6.11 g/m*3 8.4 C 0 km/h
Sensor: Nr:Datum:Temp:Abs-Feuchte:Windchill:Wind:
Aussen-T/F 376 17-05-2010 03:09:04 8.1 C 6.07 g/m*3 8.1 C 0 km/h
377 17-05-2010 03:21:04 7.8 C 6.12 g/m*3 7.8 C 0 km/h
378 17-05-2010 03:33:04 7.6 C 6.12 g/m*3 7.6 C 0 km/h
379 17-05-2010 03:45:04 7.4 C 6.12 g/m*3 7.4 C 0 km/h
380 17-05-2010 03:57:04 7.3 C 6.16 g/m*3 7.3 C 0 km/h
381 17-05-2010 04:09:04 7.2 C 6.12 g/m*3 7.2 C 0 km/h
382 17-05-2010 04:21:04 7.1 C 6.08 g/m*3 7.1 C 0 km/h
383 17-05-2010 04:33:04 7 C 6.04 g/m*3 7 C 0 km/h
384 17-05-2010 04:45:04 6.8 C 6.12 g/m*3 6.8 C 0 km/h
385 17-05-2010 04:57:04 6.7 C 6.15 g/m*3 6.7 C 0 km/h
386 17-05-2010 05:09:04 6.5 C 6.15 g/m*3 6.5 C 0 km/h
387 17-05-2010 05:21:04 6.3 C 6.07 g/m*3 6.3 C 0 km/h
388 17-05-2010 05:33:04 6.2 C 6.1 g/m*3 6.2 C 0 km/h
389 17-05-2010 05:45:05 6.1 C 6.06 g/m*3 6.1 C 0 km/h
390 17-05-2010 05:57:05 6 C 6.02 g/m*3 6 C 0 km/h
391 17-05-2010 06:09:05 6 C 6.1 g/m*3 6 C 0 km/h
392 17-05-2010 06:21:05 6 C 6.02 g/m*3 6 C 0 km/h
393 17-05-2010 06:33:03 6 C 6.02 g/m*3 6 C 0 km/h
394 17-05-2010 06:45:02 5.9 C 6.06 g/m*3 5.9 C 0 km/h
395 17-05-2010 06:57:02 6.1 C 6.06 g/m*3 6.1 C 0 km/h
396 17-05-2010 07:09:01 6.3 C 6.14 g/m*3 6.3 C 0 km/h
397 17-05-2010 07:21:02 6.5 C 6.15 g/m*3 6.5 C 0 km/h
398 17-05-2010 07:33:01 7.2 C 6.2 g/m*3 7.2 C 0 km/h
399 17-05-2010 07:45:02 7.4 C 6.2 g/m*3 7.4 C 0 km/h
400 17-05-2010 07:57:02 8 C 6.2 g/m*3 8 C 0 km/h
Sensor: Nr:Datum:Temp:Abs-Feuchte:Windchill:Wind:
Aussen-T/F 401 17-05-2010 08:09:01 8.3 C 6.24 g/m*3 8.3 C 0 km/h
402 17-05-2010 08:21:02 8.8 C 6.35 g/m*3 8.8 C 0 km/h
403 17-05-2010 08:33:02 9.2 C 6.25 g/m*3 9.2 C 0 km/h
404 17-05-2010 08:45:02 10.1 C 6.24 g/m*3 10.1 C 0 km/h
405 17-05-2010 08:57:02 10.7 C 6.29 g/m*3 10.7 C 0 km/h
406 17-05-2010 09:09:02 11.2 C 6.28 g/m*3 11.2 C 0 km/h
407 17-05-2010 09:21:02 11.6 C 6.44 g/m*3 11.6 C 0 km/h
408 17-05-2010 09:33:02 12.2 C 6.47 g/m*3 12.2 C 0 km/h
409 17-05-2010 09:45:02 12.2 C 6.47 g/m*3 12.2 C 0 km/h
410 17-05-2010 09:57:02 12.2 C 6.47 g/m*3 12.2 C 0 km/h
411 17-05-2010 10:09:02 13 C 6.35 g/m*3 13 C 0 km/h
412 17-05-2010 10:21:02 13.2 C 6.2 g/m*3 13.2 C 0 km/h
413 17-05-2010 10:33:03 13.7 C 6.39 g/m*3 13.7 C 0 km/h
414 17-05-2010 10:45:02 14.1 C 6.55 g/m*3 14.1 C 0 km/h
415 17-05-2010 10:57:03 14.5 C 6.47 g/m*3 14.5 C 0 km/h
416 17-05-2010 11:09:01 14.1 C 6.55 g/m*3 14.1 C 0 km/h
417 17-05-2010 11:21:02 13.9 C 6.83 g/m*3 13.9 C 0 km/h
418 17-05-2010 11:33:02 13.5 C 6.67 g/m*3 13.5 C 0 km/h
419 17-05-2010 11:45:02 13.5 C 7.13 g/m*3 13.5 C 0 km/h
420 17-05-2010 11:57:02 13 C 7.14 g/m*3 13 C 0 km/h
421 17-05-2010 12:09:02 13.2 C 7.23 g/m*3 13.2 C 0 km/h
422 17-05-2010 12:21:02 13 C 7.48 g/m*3 13 C 0 km/h
423 17-05-2010 12:33:02 13.2 C 7.69 g/m*3 13.2 C 0 km/h
424 17-05-2010 12:45:01 14.2 C 7.45 g/m*3 14.2 C 0 km/h
425 17-05-2010 12:57:01 15.8 C 7.27 g/m*3 15.8 C 0 km/h
Sensor: Nr:Datum:Temp:Abs-Feuchte:Windchill:Wind:
Aussen-T/F 426 17-05-2010 13:09:02 15.4 C 6.7 g/m*3 15.4 C 0 km/h
427 17-05-2010 13:21:01 16.9 C 6.9 g/m*3 16.9 C 0 km/h
428 17-05-2010 13:33:01 18.1 C 6.49 g/m*3 18.1 C 0 km/h
429 17-05-2010 13:45:01 17.7 C 6.04 g/m*3 17.7 C 0 km/h
430 17-05-2010 13:57:01 15 C 7.05 g/m*3 15 C 0 km/h
431 17-05-2010 14:09:02 15.6 C 7.05 g/m*3 15.6 C 0 km/h
432 17-05-2010 14:21:01 15.5 C 7.4 g/m*3 15.5 C 0 km/h
433 17-05-2010 14:33:01 17.1 C 6.7 g/m*3 17.1 C 0 km/h
434 17-05-2010 14:45:01 16.5 C 6.46 g/m*3 16.5 C 0 km/h
435 17-05-2010 14:57:01 14.7 C 7.18 g/m*3 14.7 C 0 km/h
436 17-05-2010 15:09:02 12.6 C 8.3 g/m*3 12.6 C 0 km/h
437 17-05-2010 15:21:02 12.6 C 9.07 g/m*3 12.6 C 0 km/h
438 17-05-2010 15:33:01 12.9 C 9.58 g/m*3 12.9 C 0 km/h
439 17-05-2010 15:45:02 12.7 C 9.57 g/m*3 12.7 C 0 km/h
440 17-05-2010 15:57:02 12.5 C 9.57 g/m*3 12.5 C 0 km/h
441 17-05-2010 16:09:01 13.3 C 10.05 g/m*3 13.3 C 0 km/h
442 17-05-2010 16:21:02 13.8 C 9.89 g/m*3 13.8 C 0 km/h
443 17-05-2010 16:33:01 13.7 C 9.24 g/m*3 13.7 C 0 km/h
444 17-05-2010 16:45:02 13.1 C 8.9 g/m*3 13.1 C 0 km/h
445 17-05-2010 16:57:02 13.3 C 9.24 g/m*3 13.3 C 0 km/h
446 17-05-2010 17:09:01 13.8 C 9.29 g/m*3 13.8 C 0 km/h
447 17-05-2010 17:21:01 14.1 C 8.98 g/m*3 14.1 C 0 km/h
448 17-05-2010 17:33:01 13.9 C 8.99 g/m*3 13.9 C 0 km/h
449 17-05-2010 17:45:02 13.7 C 8.64 g/m*3 13.7 C 0 km/h
450 17-05-2010 17:57:02 13.8 C 8.7 g/m*3 13.8 C 0 km/h
Sensor: Nr:Datum:Temp:Abs-Feuchte:Windchill:Wind:
Aussen-T/F 451 17-05-2010 18:09:02 13.6 C 8.47 g/m*3 13.6 C 0 km/h
452 17-05-2010 18:21:02 14.4 C 8.9 g/m*3 14.4 C 0 km/h
453 17-05-2010 18:33:02 11.8 C 6.63 g/m*3 11.8 C 0 km/h
454 17-05-2010 18:45:01 10.7 C 6.88 g/m*3 10.7 C 0 km/h
455 17-05-2010 18:57:01 10 C 7.24 g/m*3 10 C 0 km/h
456 17-05-2010 19:09:02 9.8 C 7.7 g/m*3 9.8 C 0 km/h
457 17-05-2010 19:21:01 10.3 C 7.85 g/m*3 10.3 C 0 km/h
458 17-05-2010 19:33:02 10.3 C 7.95 g/m*3 10.3 C 0 km/h
459 17-05-2010 19:45:02 9.8 C 7.7 g/m*3 9.8 C 0 km/h
460 17-05-2010 19:57:02 10 C 7.8 g/m*3 10 C 0 km/h
461 17-05-2010 20:09:02 9.8 C 7.89 g/m*3 9.8 C 0 km/h
462 17-05-2010 20:21:01 9.5 C 7.83 g/m*3 9.5 C 0 km/h
463 17-05-2010 20:33:02 9.5 C 7.92 g/m*3 9.5 C 0 km/h
464 17-05-2010 20:45:02 9.4 C 7.87 g/m*3 9.4 C 0 km/h
465 17-05-2010 20:57:02 9.1 C 7.81 g/m*3 9.1 C 0 km/h
466 17-05-2010 21:09:02 9 C 7.76 g/m*3 9 C 0 km/h
467 17-05-2010 21:21:02 9 C 7.85 g/m*3 9 C 0 km/h
468 17-05-2010 21:33:02 9 C 7.85 g/m*3 9 C 0 km/h
469 17-05-2010 21:45:02 8.7 C 7.78 g/m*3 8.7 C 0 km/h
470 17-05-2010 21:57:02 8.7 C 7.87 g/m*3 8.7 C 0 km/h
471 17-05-2010 22:09:02 8.3 C 7.67 g/m*3 8.3 C 0 km/h
472 17-05-2010 22:21:02 8.6 C 7.82 g/m*3 8.6 C 0 km/h
473 17-05-2010 22:34:03 8.7 C 7.96 g/m*3 8.7 C 0 km/h
474 17-05-2010 22:46:03 8.5 C 7.85 g/m*3 8.5 C 0 km/h
475 17-05-2010 22:58:03 8.4 C 7.8 g/m*3 8.4 C 0 km/h
Sensor: Nr:Datum:Temp:Abs-Feuchte:Windchill:Wind:
Aussen-T/F 476 17-05-2010 23:10:04 8.1 C 7.57 g/m*3 8.1 C 0 km/h
477 17-05-2010 23:22:04 7.8 C 7.51 g/m*3 7.8 C 0 km/h
478 17-05-2010 23:34:04 7.8 C 7.51 g/m*3 7.8 C 0 km/h
479 17-05-2010 23:46:04 7.7 C 7.54 g/m*3 7.7 C 0 km/h
480 17-05-2010 23:58:04 7.6 C 7.49 g/m*3 7.6 C 0 km/h
481 18-05-2010 00:10:04 7.4 C 7.32 g/m*3 7.4 C 0 km/h
482 18-05-2010 00:22:04 7.1 C 7.18 g/m*3 7.1 C 0 km/h
483 18-05-2010 00:34:04 7 C 7.13 g/m*3 7 C 0 km/h
484 18-05-2010 00:46:04 7 C 7.13 g/m*3 7 C 0 km/h
485 18-05-2010 00:58:04 6.9 C 7.16 g/m*3 6.9 C 0 km/h
486 18-05-2010 01:10:04 6.8 C 7.11 g/m*3 6.8 C 0 km/h
487 18-05-2010 01:22:04 6.6 C 7.02 g/m*3 6.6 C 0 km/h
488 18-05-2010 01:34:04 6.4 C 6.85 g/m*3 6.4 C 0 km/h
489 18-05-2010 01:46:04 6.3 C 6.88 g/m*3 6.3 C 0 km/h
490 18-05-2010 01:58:04 6.2 C 6.84 g/m*3 6.2 C 0 km/h
491 18-05-2010 02:10:04 6.3 C 6.88 g/m*3 6.3 C 0 km/h
492 18-05-2010 02:22:04 6.2 C 6.84 g/m*3 6.2 C 0 km/h
493 18-05-2010 02:34:04 6.1 C 6.79 g/m*3 6.1 C 0 km/h
494 18-05-2010 02:46:04 6 C 6.75 g/m*3 6 C 0 km/h
495 18-05-2010 02:58:04 5.9 C 6.71 g/m*3 5.9 C 0 km/h
496 18-05-2010 03:10:04 5.8 C 6.66 g/m*3 5.8 C 0 km/h
497 18-05-2010 03:22:04 5.7 C 6.62 g/m*3 5.7 C 0 km/h
498 18-05-2010 03:34:05 5.7 C 6.69 g/m*3 5.7 C 0 km/h
499 18-05-2010 03:46:05 5.8 C 6.73 g/m*3 5.8 C 0 km/h
500 18-05-2010 03:58:05 6 C 6.75 g/m*3 6 C 0 km/h
Sensor: Nr:Datum:Temp:Abs-Feuchte:Windchill:Wind:
Aussen-T/F 501 18-05-2010 04:10:05 6.3 C 6.96 g/m*3 6.3 C 0 km/h
502 18-05-2010 04:22:05 6.3 C 6.96 g/m*3 6.3 C 0 km/h
503 18-05-2010 04:34:05 6.3 C 6.96 g/m*3 6.3 C 0 km/h
504 18-05-2010 04:46:05 6.2 C 6.91 g/m*3 6.2 C 0 km/h
505 18-05-2010 04:58:05 6.3 C 6.88 g/m*3 6.3 C 0 km/h
506 18-05-2010 05:10:05 6.4 C 7 g/m*3 6.4 C 0 km/h
507 18-05-2010 05:22:05 6.5 C 7.05 g/m*3 6.5 C 0 km/h
508 18-05-2010 05:34:05 6.4 C 6.93 g/m*3 6.4 C 0 km/h
509 18-05-2010 05:46:05 6.5 C 6.97 g/m*3 6.5 C 0 km/h
510 18-05-2010 05:58:05 6.7 C 7.07 g/m*3 6.7 C 0 km/h
511 18-05-2010 06:10:05 6.9 C 7.16 g/m*3 6.9 C 0 km/h
512 18-05-2010 06:22:05 6.9 C 7.16 g/m*3 6.9 C 0 km/h
513 18-05-2010 06:34:05 7.1 C 7.18 g/m*3 7.1 C 0 km/h
514 18-05-2010 06:46:05 7.3 C 7.27 g/m*3 7.3 C 0 km/h
515 18-05-2010 06:58:05 7.5 C 7.28 g/m*3 7.5 C 0 km/h
516 18-05-2010 07:10:04 7.9 C 7.47 g/m*3 7.9 C 0 km/h
517 18-05-2010 07:22:03 7.9 C 7.39 g/m*3 7.9 C 0 km/h
518 18-05-2010 07:34:03 8 C 7.36 g/m*3 8 C 0 km/h
519 18-05-2010 07:46:01 8.5 C 7.6 g/m*3 8.5 C 0 km/h
520 18-05-2010 07:58:01 8.7 C 7.52 g/m*3 8.7 C 0 km/h
521 18-05-2010 08:10:02 9 C 7.23 g/m*3 9 C 0 km/h
522 18-05-2010 08:22:01 8.7 C 6.66 g/m*3 8.7 C 0 km/h
523 18-05-2010 08:34:02 9 C 6.44 g/m*3 9 C 0 km/h
524 18-05-2010 08:46:02 9.3 C 6.56 g/m*3 9.3 C 0 km/h
525 18-05-2010 08:58:02 9.2 C 6.52 g/m*3 9.2 C 0 km/h
Sensor: Nr:Datum:Temp:Abs-Feuchte:Windchill:Wind:
Aussen-T/F 526 18-05-2010 09:10:01 9.3 C 6.47 g/m*3 9.3 C 0 km/h
527 18-05-2010 09:22:02 9.6 C 6.41 g/m*3 9.6 C 0 km/h
528 18-05-2010 09:34:01 9.9 C 6.35 g/m*3 9.9 C 0 km/h
529 18-05-2010 09:46:02 9.7 C 6.08 g/m*3 9.7 C 0 km/h
530 18-05-2010 09:58:02 10 C 6.01 g/m*3 10 C 0 km/h
531 18-05-2010 10:10:01 10.5 C 6.01 g/m*3 10.5 C 0 km/h
532 18-05-2010 10:22:01 10.5 C 6.01 g/m*3 10.5 C 0 km/h
533 18-05-2010 10:34:02 10.6 C 5.66 g/m*3 10.6 C 0 km/h
534 18-05-2010 10:46:02 11.2 C 5.57 g/m*3 11.2 C 0 km/h
535 18-05-2010 10:58:02 11.4 C 5.65 g/m*3 11.4 C 0 km/h
536 18-05-2010 11:10:02 12.5 C 5.61 g/m*3 12.5 C 0 km/h
537 18-05-2010 11:22:02 12.4 C 5.24 g/m*3 12.4 C 0 km/h
538 18-05-2010 11:34:02 12.1 C 5.25 g/m*3 12.1 C 0 km/h
539 18-05-2010 11:46:02 13 C 5.22 g/m*3 13 C 0 km/h
540 18-05-2010 11:58:02 13.7 C 5.21 g/m*3 13.7 C 0 km/h
541 18-05-2010 12:10:03 13.7 C 4.86 g/m*3 13.7 C 0 km/h
542 18-05-2010 12:22:02 12.7 C 5.12 g/m*3 12.7 C 0 km/h
543 18-05-2010 12:34:02 14.2 C 5.13 g/m*3 14.2 C 0 km/h
544 18-05-2010 12:46:01 14.4 C 4.82 g/m*3 14.4 C 0 km/h
545 18-05-2010 12:58:01 15.2 C 4.67 g/m*3 15.2 C 0 km/h
546 18-05-2010 13:10:02 16.8 C 5 g/m*3 16.8 C 0 km/h
547 18-05-2010 13:22:01 16.9 C 4.46 g/m*3 16.9 C 0 km/h
548 18-05-2010 13:34:01 16.5 C 4.49 g/m*3 16.5 C 0 km/h
549 18-05-2010 13:46:01 17.8 C 4.4 g/m*3 17.8 C 0 km/h
550 18-05-2010 13:58:01 15.8 C 4.04 g/m*3 15.8 C 0 km/h
Sensor: Nr:Datum:Temp:Abs-Feuchte:Windchill:Wind:
Aussen-T/F 551 18-05-2010 14:10:02 15.1 C 4.13 g/m*3 15.1 C 0 km/h
552 18-05-2010 14:22:01 15.8 C 4.17 g/m*3 15.8 C 0 km/h
553 18-05-2010 14:34:01 15 C 4.23 g/m*3 15 C 0 km/h
554 18-05-2010 14:46:01 15.8 C 4.31 g/m*3 15.8 C 0 km/h
555 18-05-2010 14:58:01 16.3 C 4.16 g/m*3 16.3 C 0 km/h
556 18-05-2010 15:10:02 16.4 C 4.47 g/m*3 16.4 C 0 km/h
557 18-05-2010 15:22:02 16.5 C 4.21 g/m*3 16.5 C 0 km/h
558 18-05-2010 15:34:01 16.6 C 3.96 g/m*3 16.6 C 0 km/h
559 18-05-2010 15:46:02 16 C 3.95 g/m*3 16 C 0 km/h
560 18-05-2010 15:58:02 16.9 C 4.17 g/m*3 16.9 C 0 km/h
561 18-05-2010 16:10:01 18.2 C 4.04 g/m*3 18.2 C 0 km/h
562 18-05-2010 16:22:02 18.2 C 3.89 g/m*3 18.2 C 0 km/h
563 18-05-2010 16:34:01 17.9 C 3.05 g/m*3 17.9 C 0 km/h
564 18-05-2010 16:46:02 17.6 C 3.3 g/m*3 17.6 C 0 km/h
565 18-05-2010 16:58:02 16.8 C 3.29 g/m*3 16.8 C 0 km/h
566 18-05-2010 17:10:02 16.6 C 3.53 g/m*3 16.6 C 0 km/h
567 18-05-2010 17:22:02 17.7 C 3.77 g/m*3 17.7 C 0 km/h
568 18-05-2010 17:34:02 17.5 C 4.03 g/m*3 17.5 C 0 km/h
569 18-05-2010 17:46:02 16.8 C 3.86 g/m*3 16.8 C 0 km/h
570 18-05-2010 17:58:02 17.2 C 3.66 g/m*3 17.2 C 0 km/h
571 18-05-2010 18:10:01 18.2 C 3.57 g/m*3 18.2 C 0 km/h
572 18-05-2010 18:22:02 18.2 C 3.73 g/m*3 18.2 C 0 km/h
573 18-05-2010 18:34:02 16.9 C 3.88 g/m*3 16.9 C 0 km/h
574 18-05-2010 18:46:02 16.2 C 4.14 g/m*3 16.2 C 0 km/h
575 18-05-2010 18:58:02 16.4 C 4.33 g/m*3 16.4 C 0 km/h
Sensor: Nr:Datum:Temp:Abs-Feuchte:Windchill:Wind:
Aussen-T/F 576 18-05-2010 19:10:02 15.7 C 4.42 g/m*3 15.7 C 0 km/h
577 18-05-2010 19:22:02 16.1 C 4.25 g/m*3 16.1 C 0 km/h
578 18-05-2010 19:34:03 15.3 C 4.31 g/m*3 15.3 C 0 km/h
579 18-05-2010 19:46:02 14.8 C 4.56 g/m*3 14.8 C 0 km/h
580 18-05-2010 19:58:02 14.7 C 4.66 g/m*3 14.7 C 0 km/h
581 18-05-2010 20:10:02 14.5 C 4.6 g/m*3 14.5 C 0 km/h
582 18-05-2010 20:22:01 14.4 C 4.94 g/m*3 14.4 C 0 km/h
583 18-05-2010 20:34:02 14.5 C 4.85 g/m*3 14.5 C 0 km/h
584 18-05-2010 20:46:02 14.1 C 4.85 g/m*3 14.1 C 0 km/h
585 18-05-2010 20:58:02 13.8 C 4.89 g/m*3 13.8 C 0 km/h
586 18-05-2010 21:10:02 13.5 C 5.03 g/m*3 13.5 C 0 km/h
587 18-05-2010 21:22:02 13.1 C 4.79 g/m*3 13.1 C 0 km/h
588 18-05-2010 21:34:02 12.6 C 4.76 g/m*3 12.6 C 0 km/h
589 18-05-2010 21:46:02 12.4 C 4.48 g/m*3 12.4 C 0 km/h
590 18-05-2010 21:58:02 12.4 C 4.37 g/m*3 12.4 C 0 km/h
591 18-05-2010 22:10:02 12 C 4.37 g/m*3 12 C 0 km/h
592 18-05-2010 22:22:02 11.7 C 4.39 g/m*3 11.7 C 0 km/h
593 18-05-2010 22:35:02 11.5 C 4.44 g/m*3 11.5 C 0 km/h
594 18-05-2010 22:47:02 11.2 C 4.66 g/m*3 11.2 C 0 km/h
595 18-05-2010 22:59:02 10.8 C 4.94 g/m*3 10.8 C 0 km/h
596 18-05-2010 23:11:02 10.5 C 5.04 g/m*3 10.5 C 0 km/h
597 18-05-2010 23:23:02 10.2 C 5.33 g/m*3 10.2 C 0 km/h
598 18-05-2010 23:35:03 9.9 C 5.51 g/m*3 9.9 C 0 km/h
599 18-05-2010 23:47:03 9.7 C 5.53 g/m*3 9.7 C 0 km/h
600 18-05-2010 23:59:03 9.6 C 5.59 g/m*3 9.6 C 0 km/h
Sensor: Nr:Datum:Temp:Abs-Feuchte:Windchill:Wind:
Aussen-T/F 601 19-05-2010 00:11:03 9.4 C 5.79 g/m*3 9.4 C 0 km/h
602 19-05-2010 00:23:03 9.4 C 5.79 g/m*3 9.4 C 0 km/h
603 19-05-2010 00:35:03 9.3 C 5.75 g/m*3 9.3 C 0 km/h
604 19-05-2010 00:47:03 9.3 C 5.75 g/m*3 9.3 C 0 km/h
605 19-05-2010 00:59:03 9.2 C 5.71 g/m*3 9.2 C 0 km/h
606 19-05-2010 01:11:03 9.2 C 5.54 g/m*3 9.2 C 0 km/h
607 19-05-2010 01:23:03 9.3 C 5.39 g/m*3 9.3 C 0 km/h
608 19-05-2010 01:35:03 9.3 C 5.3 g/m*3 9.3 C 0 km/h
609 19-05-2010 01:47:03 9.3 C 5.3 g/m*3 9.3 C 0 km/h
610 19-05-2010 01:59:03 9.3 C 5.3 g/m*3 9.3 C 0 km/h
611 19-05-2010 02:11:03 9.2 C 5.27 g/m*3 9.2 C 0 km/h
612 19-05-2010 02:23:03 9.1 C 5.32 g/m*3 9.1 C 0 km/h
613 19-05-2010 02:35:03 9.2 C 5.36 g/m*3 9.2 C 0 km/h
614 19-05-2010 02:47:03 9 C 5.29 g/m*3 9 C 0 km/h
615 19-05-2010 02:59:03 8.8 C 5.4 g/m*3 8.8 C 0 km/h
616 19-05-2010 03:11:03 8.8 C 5.4 g/m*3 8.8 C 0 km/h
617 19-05-2010 03:23:03 8.8 C 5.31 g/m*3 8.8 C 0 km/h
618 19-05-2010 03:35:03 8.7 C 5.36 g/m*3 8.7 C 0 km/h
619 19-05-2010 03:47:03 8.6 C 5.33 g/m*3 8.6 C 0 km/h
620 19-05-2010 03:59:03 8.5 C 5.38 g/m*3 8.5 C 0 km/h
621 19-05-2010 04:11:04 8.4 C 5.43 g/m*3 8.4 C 0 km/h
622 19-05-2010 04:23:04 8.2 C 5.44 g/m*3 8.2 C 0 km/h
623 19-05-2010 04:35:04 8.1 C 5.49 g/m*3 8.1 C 0 km/h
624 19-05-2010 04:47:04 8.1 C 5.66 g/m*3 8.1 C 0 km/h
625 19-05-2010 04:59:04 8 C 5.7 g/m*3 8 C 0 km/h
Sensor: Nr:Datum:Temp:Abs-Feuchte:Windchill:Wind:
Aussen-T/F 626 19-05-2010 05:11:04 8 C 5.7 g/m*3 8 C 0 km/h
627 19-05-2010 05:23:04 7.9 C 5.83 g/m*3 7.9 C 0 km/h
628 19-05-2010 05:35:04 7.9 C 5.91 g/m*3 7.9 C 0 km/h
629 19-05-2010 05:47:04 7.9 C 5.91 g/m*3 7.9 C 0 km/h
630 19-05-2010 05:59:04 7.9 C 5.91 g/m*3 7.9 C 0 km/h
631 19-05-2010 06:11:04 7.8 C 5.96 g/m*3 7.8 C 0 km/h
632 19-05-2010 06:23:04 8 C 5.95 g/m*3 8 C 0 km/h
633 19-05-2010 06:35:04 8.1 C 5.91 g/m*3 8.1 C 0 km/h
634 19-05-2010 06:47:04 8.1 C 5.91 g/m*3 8.1 C 0 km/h
635 19-05-2010 06:59:04 8.2 C 5.95 g/m*3 8.2 C 0 km/h
636 19-05-2010 07:11:02 8.4 C 6.02 g/m*3 8.4 C 0 km/h
637 19-05-2010 07:23:02 8.5 C 5.89 g/m*3 8.5 C 0 km/h
638 19-05-2010 07:35:02 8.6 C 5.84 g/m*3 8.6 C 0 km/h
639 19-05-2010 07:47:02 8.7 C 5.88 g/m*3 8.7 C 0 km/h
640 19-05-2010 07:59:02 9.1 C 5.86 g/m*3 9.1 C 0 km/h
641 19-05-2010 08:11:02 9.1 C 5.68 g/m*3 9.1 C 0 km/h
642 19-05-2010 08:23:02 9.3 C 5.66 g/m*3 9.3 C 0 km/h
643 19-05-2010 08:35:02 9 C 5.55 g/m*3 9 C 0 km/h
644 19-05-2010 08:47:02 9.1 C 5.59 g/m*3 9.1 C 0 km/h
645 19-05-2010 08:59:02 9.2 C 5.63 g/m*3 9.2 C 0 km/h
646 19-05-2010 09:11:01 8.9 C 5.69 g/m*3 8.9 C 0 km/h
647 19-05-2010 09:23:01 9.1 C 5.77 g/m*3 9.1 C 0 km/h
648 19-05-2010 09:35:01 9.2 C 5.71 g/m*3 9.2 C 0 km/h
649 19-05-2010 09:47:02 9.2 C 5.71 g/m*3 9.2 C 0 km/h
650 19-05-2010 09:59:02 9.5 C 5.73 g/m*3 9.5 C 0 km/h
Sensor: Nr:Datum:Temp:Abs-Feuchte:Windchill:Wind:
Aussen-T/F 651 19-05-2010 10:11:02 9.6 C 5.77 g/m*3 9.6 C 0 km/h
652 19-05-2010 10:23:02 9.6 C 5.68 g/m*3 9.6 C 0 km/h
653 19-05-2010 10:35:01 9.8 C 5.75 g/m*3 9.8 C 0 km/h
654 19-05-2010 10:47:02 9.5 C 5.64 g/m*3 9.5 C 0 km/h
655 19-05-2010 10:59:02 9.6 C 5.77 g/m*3 9.6 C 0 km/h
656 19-05-2010 11:11:01 9.7 C 5.81 g/m*3 9.7 C 0 km/h
657 19-05-2010 11:23:02 10.1 C 5.77 g/m*3 10.1 C 0 km/h
658 19-05-2010 11:35:02 10.3 C 5.84 g/m*3 10.3 C 0 km/h
659 19-05-2010 11:47:02 10.7 C 5.89 g/m*3 10.7 C 0 km/h
660 19-05-2010 11:59:02 10.3 C 5.75 g/m*3 10.3 C 0 km/h
661 19-05-2010 12:11:02 10.7 C 5.99 g/m*3 10.7 C 0 km/h
662 19-05-2010 12:23:02 10.9 C 5.97 g/m*3 10.9 C 0 km/h
663 19-05-2010 12:35:02 10.7 C 5.8 g/m*3 10.7 C 0 km/h
664 19-05-2010 12:47:02 11.1 C 5.64 g/m*3 11.1 C 0 km/h
665 19-05-2010 12:59:02 11.7 C 5.75 g/m*3 11.7 C 0 km/h
666 19-05-2010 13:11:02 11.9 C 5.61 g/m*3 11.9 C 0 km/h
667 19-05-2010 13:23:01 11.7 C 5.33 g/m*3 11.7 C 0 km/h
668 19-05-2010 13:35:02 11.5 C 5.99 g/m*3 11.5 C 0 km/h
669 19-05-2010 13:47:02 11.3 C 6.32 g/m*3 11.3 C 0 km/h
670 19-05-2010 13:59:02 11.3 C 6.32 g/m*3 11.3 C 0 km/h
671 19-05-2010 14:11:02 11.4 C 6.47 g/m*3 11.4 C 0 km/h
672 19-05-2010 14:23:02 11.2 C 6.39 g/m*3 11.2 C 0 km/h
673 19-05-2010 14:35:02 10.9 C 6.76 g/m*3 10.9 C 0 km/h
674 19-05-2010 14:47:02 11.9 C 7.31 g/m*3 11.9 C 0 km/h
675 19-05-2010 14:59:02 11.9 C 6.99 g/m*3 11.9 C 0 km/h
Sensor: Nr:Datum:Temp:Abs-Feuchte:Windchill:Wind:
Aussen-T/F 676 19-05-2010 15:11:02 11.8 C 7.37 g/m*3 11.8 C 0 km/h
677 19-05-2010 15:23:02 11.5 C 7.64 g/m*3 11.5 C 0 km/h
678 19-05-2010 15:35:02 11.4 C 7.9 g/m*3 11.4 C 0 km/h
679 19-05-2010 15:47:02 11.1 C 7.86 g/m*3 11.1 C 0 km/h
680 19-05-2010 15:59:02 11.2 C 8.01 g/m*3 11.2 C 0 km/h
681 19-05-2010 16:11:02 11 C 8.01 g/m*3 11 C 0 km/h
682 19-05-2010 16:23:02 10.8 C 8.01 g/m*3 10.8 C 0 km/h
683 19-05-2010 16:35:02 10.7 C 8.05 g/m*3 10.7 C 0 km/h
684 19-05-2010 16:47:02 10.8 C 8.2 g/m*3 10.8 C 0 km/h
685 19-05-2010 16:59:02 10.6 C 8.1 g/m*3 10.6 C 0 km/h
686 19-05-2010 17:11:02 10.7 C 8.25 g/m*3 10.7 C 0 km/h
687 19-05-2010 17:23:03 10.6 C 8.3 g/m*3 10.6 C 0 km/h
688 19-05-2010 17:35:02 10.7 C 8.35 g/m*3 10.7 C 0 km/h
689 19-05-2010 17:47:02 10.7 C 8.35 g/m*3 10.7 C 0 km/h
690 19-05-2010 17:59:02 10.7 C 8.35 g/m*3 10.7 C 0 km/h
691 19-05-2010 18:11:02 11.1 C 8.46 g/m*3 11.1 C 0 km/h
692 19-05-2010 18:23:03 11.1 C 8.36 g/m*3 11.1 C 0 km/h
693 19-05-2010 18:35:02 11.1 C 8.16 g/m*3 11.1 C 0 km/h
694 19-05-2010 18:47:02 11.2 C 8.11 g/m*3 11.2 C 0 km/h
695 19-05-2010 18:59:02 11.2 C 8.01 g/m*3 11.2 C 0 km/h
696 19-05-2010 19:11:02 11.3 C 7.96 g/m*3 11.3 C 0 km/h
697 19-05-2010 19:23:02 11.4 C 8.01 g/m*3 11.4 C 0 km/h
698 19-05-2010 19:35:02 11.5 C 8.06 g/m*3 11.5 C 0 km/h
699 19-05-2010 19:47:02 11.6 C 8.11 g/m*3 11.6 C 0 km/h
700 19-05-2010 19:59:02 11.6 C 8 g/m*3 11.6 C 0 km/h
Sensor: Nr:Datum:Temp:Abs-Feuchte:Windchill:Wind:
Aussen-T/F 701 19-05-2010 20:11:02 11.6 C 8 g/m*3 11.6 C 0 km/h
702 19-05-2010 20:23:02 11.7 C 7.95 g/m*3 11.7 C 0 km/h
703 19-05-2010 20:35:01 11.7 C 7.84 g/m*3 11.7 C 0 km/h
704 19-05-2010 20:47:02 11.8 C 7.68 g/m*3 11.8 C 0 km/h
705 19-05-2010 20:59:02 12 C 7.14 g/m*3 12 C 0 km/h
706 19-05-2010 21:11:01 12.6 C 6.2 g/m*3 12.6 C 0 km/h
707 19-05-2010 21:23:02 12.8 C 6.16 g/m*3 12.8 C 0 km/h
708 19-05-2010 21:35:02 13.2 C 5.51 g/m*3 13.2 C 0 km/h
709 19-05-2010 21:47:02 13 C 5.78 g/m*3 13 C 0 km/h
710 19-05-2010 21:59:03 13.1 C 5.48 g/m*3 13.1 C 0 km/h
711 19-05-2010 22:11:02 13.2 C 5.51 g/m*3 13.2 C 0 km/h
712 19-05-2010 22:23:02 13.1 C 5.71 g/m*3 13.1 C 0 km/h
713 19-05-2010 22:35:03 13.2 C 5.63 g/m*3 13.2 C 0 km/h
714 19-05-2010 22:47:02 13 C 5.67 g/m*3 13 C 0 km/h
715 19-05-2010 22:59:03 12.8 C 5.94 g/m*3 12.8 C 0 km/h
716 19-05-2010 23:11:01 12.8 C 5.94 g/m*3 12.8 C 0 km/h
717 19-05-2010 23:23:02 12.8 C 5.82 g/m*3 12.8 C 0 km/h
718 19-05-2010 23:35:02 12.8 C 5.94 g/m*3 12.8 C 0 km/h
719 19-05-2010 23:47:02 12.9 C 5.75 g/m*3 12.9 C 0 km/h
720 19-05-2010 23:59:02 12.7 C 5.68 g/m*3 12.7 C 0 km/h
721 20-05-2010 00:11:02 12.9 C 5.52 g/m*3 12.9 C 0 km/h
722 20-05-2010 00:23:03 12.8 C 5.49 g/m*3 12.8 C 0 km/h
723 20-05-2010 00:35:02 12.8 C 5.26 g/m*3 12.8 C 0 km/h
724 20-05-2010 00:47:02 13 C 4.99 g/m*3 13 C 0 km/h
725 20-05-2010 00:59:02 13 C 4.76 g/m*3 13 C 0 km/h
Sensor: Nr:Datum:Temp:Abs-Feuchte:Windchill:Wind:
Aussen-T/F 726 20-05-2010 01:11:02 12.8 C 4.93 g/m*3 12.8 C 0 km/h
727 20-05-2010 01:23:03 12.6 C 5.2 g/m*3 12.6 C 0 km/h
728 20-05-2010 01:35:02 12.5 C 5.61 g/m*3 12.5 C 0 km/h
729 20-05-2010 01:47:03 12.4 C 5.68 g/m*3 12.4 C 0 km/h
730 20-05-2010 01:59:03 12.2 C 5.61 g/m*3 12.2 C 0 km/h
731 20-05-2010 02:11:02 12.1 C 5.47 g/m*3 12.1 C 0 km/h
732 20-05-2010 02:23:03 12 C 5.65 g/m*3 12 C 0 km/h
733 20-05-2010 02:35:02 11.8 C 5.68 g/m*3 11.8 C 0 km/h
734 20-05-2010 02:48:04 11.7 C 5.65 g/m*3 11.7 C 0 km/h
735 20-05-2010 03:00:04 11.5 C 5.68 g/m*3 11.5 C 0 km/h
736 20-05-2010 03:12:03 11.7 C 5.54 g/m*3 11.7 C 0 km/h
737 20-05-2010 03:24:03 11.5 C 5.37 g/m*3 11.5 C 0 km/h
738 20-05-2010 03:36:01 11.4 C 5.44 g/m*3 11.4 C 0 km/h
739 20-05-2010 03:48:01 11.5 C 5.47 g/m*3 11.5 C 0 km/h
740 20-05-2010 04:00:01 11.2 C 5.47 g/m*3 11.2 C 0 km/h
741 20-05-2010 04:12:02 11.3 C 5.3 g/m*3 11.3 C 0 km/h
742 20-05-2010 04:24:01 11.2 C 5.27 g/m*3 11.2 C 0 km/h
743 20-05-2010 04:36:02 11.1 C 5.24 g/m*3 11.1 C 0 km/h
744 20-05-2010 04:48:01 11 C 5.2 g/m*3 11 C 0 km/h
745 20-05-2010 05:00:01 11.1 C 5.24 g/m*3 11.1 C 0 km/h
746 20-05-2010 05:12:02 11.1 C 5.14 g/m*3 11.1 C 0 km/h
747 20-05-2010 05:24:02 11 C 5.31 g/m*3 11 C 0 km/h
748 20-05-2010 05:36:02 11 C 5.2 g/m*3 11 C 0 km/h
749 20-05-2010 05:48:01 10.9 C 5.27 g/m*3 10.9 C 0 km/h
750 20-05-2010 06:00:01 10.9 C 5.27 g/m*3 10.9 C 0 km/h
Sensor: Nr:Datum:Temp:Abs-Feuchte:Windchill:Wind:
Aussen-T/F 751 20-05-2010 06:12:02 10.9 C 5.37 g/m*3 10.9 C 0 km/h
752 20-05-2010 06:24:02 11 C 5 g/m*3 11 C 0 km/h
753 20-05-2010 06:36:02 11.1 C 5.04 g/m*3 11.1 C 0 km/h
754 20-05-2010 06:48:02 11.2 C 5.27 g/m*3 11.2 C 0 km/h
755 20-05-2010 07:00:02 11.2 C 5.17 g/m*3 11.2 C 0 km/h
756 20-05-2010 07:12:02 11.2 C 5.17 g/m*3 11.2 C 0 km/h
757 20-05-2010 07:24:02 11.2 C 5.17 g/m*3 11.2 C 0 km/h
758 20-05-2010 07:36:01 11.4 C 5.44 g/m*3 11.4 C 0 km/h
759 20-05-2010 07:48:02 11.3 C 5.3 g/m*3 11.3 C 0 km/h
760 20-05-2010 08:00:02 11.2 C 5.27 g/m*3 11.2 C 0 km/h
761 20-05-2010 08:12:01 11 C 5.2 g/m*3 11 C 0 km/h
762 20-05-2010 08:24:02 11 C 5.31 g/m*3 11 C 0 km/h
763 20-05-2010 08:36:01 11.1 C 5.44 g/m*3 11.1 C 0 km/h
764 20-05-2010 08:48:02 11.4 C 5.54 g/m*3 11.4 C 0 km/h
765 20-05-2010 09:00:02 11.8 C 5.47 g/m*3 11.8 C 0 km/h
766 20-05-2010 09:12:02 11.8 C 5.37 g/m*3 11.8 C 0 km/h
767 20-05-2010 09:24:02 11.8 C 5.47 g/m*3 11.8 C 0 km/h
768 20-05-2010 09:36:01 11.7 C 5.44 g/m*3 11.7 C 0 km/h
769 20-05-2010 09:48:02 12 C 5.33 g/m*3 12 C 0 km/h
770 20-05-2010 10:00:02 12.1 C 5.36 g/m*3 12.1 C 0 km/h
771 20-05-2010 10:12:01 12.1 C 5.36 g/m*3 12.1 C 0 km/h
772 20-05-2010 10:24:02 12.4 C 5.46 g/m*3 12.4 C 0 km/h
773 20-05-2010 10:36:01 12.5 C 5.39 g/m*3 12.5 C 0 km/h
774 20-05-2010 10:48:02 12.4 C 5.35 g/m*3 12.4 C 0 km/h
775 20-05-2010 11:00:02 12.5 C 5.28 g/m*3 12.5 C 0 km/h
Sensor: Nr:Datum:Temp:Abs-Feuchte:Windchill:Wind:
Aussen-T/F 776 20-05-2010 11:12:02 12.7 C 5.23 g/m*3 12.7 C 0 km/h
777 20-05-2010 11:24:02 13.1 C 5.14 g/m*3 13.1 C 0 km/h
778 20-05-2010 11:36:02 13.4 C 5 g/m*3 13.4 C 0 km/h
779 20-05-2010 11:48:02 13.8 C 5.12 g/m*3 13.8 C 0 km/h
780 20-05-2010 12:00:02 13.8 C 5 g/m*3 13.8 C 0 km/h
781 20-05-2010 12:12:01 13.8 C 4.89 g/m*3 13.8 C 0 km/h
782 20-05-2010 12:24:01 14.4 C 4.82 g/m*3 14.4 C 0 km/h
783 20-05-2010 12:36:02 14.2 C 4.88 g/m*3 14.2 C 0 km/h
784 20-05-2010 12:48:02 14 C 4.82 g/m*3 14 C 0 km/h
785 20-05-2010 13:00:02 14 C 4.95 g/m*3 14 C 0 km/h
786 20-05-2010 13:12:02 14.1 C 5.1 g/m*3 14.1 C 0 km/h
787 20-05-2010 13:24:01 13 C 6.01 g/m*3 13 C 0 km/h
788 20-05-2010 13:36:02 12.9 C 6.88 g/m*3 12.9 C 0 km/h
789 20-05-2010 13:48:02 13.1 C 7.3 g/m*3 13.1 C 0 km/h
790 20-05-2010 14:00:02 12.8 C 7.39 g/m*3 12.8 C 0 km/h
791 20-05-2010 14:12:02 13.5 C 7.84 g/m*3 13.5 C 0 km/h
792 20-05-2010 14:24:02 13.9 C 7.67 g/m*3 13.9 C 0 km/h
793 20-05-2010 14:36:02 13.9 C 7.43 g/m*3 13.9 C 0 km/h
794 20-05-2010 14:48:02 13.8 C 7.63 g/m*3 13.8 C 0 km/h
795 20-05-2010 15:00:02 13.7 C 7.7 g/m*3 13.7 C 0 km/h
796 20-05-2010 15:12:03 13.4 C 7.56 g/m*3 13.4 C 0 km/h
797 20-05-2010 15:24:02 12 C 7.67 g/m*3 12 C 0 km/h
798 20-05-2010 15:36:02 12.1 C 7.83 g/m*3 12.1 C 0 km/h
799 20-05-2010 15:48:02 12.5 C 7.59 g/m*3 12.5 C 0 km/h
800 20-05-2010 16:00:02 13.1 C 7.87 g/m*3 13.1 C 0 km/h
Sensor: Nr:Datum:Temp:Abs-Feuchte:Windchill:Wind:
Aussen-T/F 801 20-05-2010 16:12:02 12.9 C 7.55 g/m*3 12.9 C 0 km/h
802 20-05-2010 16:24:01 12.4 C 7.21 g/m*3 12.4 C 0 km/h
803 20-05-2010 16:36:02 12.6 C 7.85 g/m*3 12.6 C 0 km/h
804 20-05-2010 16:48:02 12.8 C 8.06 g/m*3 12.8 C 0 km/h
805 20-05-2010 17:00:02 13.3 C 8.2 g/m*3 13.3 C 0 km/h
806 20-05-2010 17:12:02 14.2 C 7.82 g/m*3 14.2 C 0 km/h
807 20-05-2010 17:24:02 14 C 7.24 g/m*3 14 C 0 km/h
808 20-05-2010 17:36:02 14.3 C 7.86 g/m*3 14.3 C 0 km/h
809 20-05-2010 17:48:02 14.2 C 7.57 g/m*3 14.2 C 0 km/h
810 20-05-2010 18:00:02 14.4 C 7.91 g/m*3 14.4 C 0 km/h
811 20-05-2010 18:12:02 14.6 C 7.88 g/m*3 14.6 C 0 km/h
812 20-05-2010 18:24:02 14.7 C 7.81 g/m*3 14.7 C 0 km/h
813 20-05-2010 18:36:02 15 C 8.08 g/m*3 15 C 0 km/h
814 20-05-2010 18:48:02 14.8 C 7.73 g/m*3 14.8 C 0 km/h
815 20-05-2010 19:00:02 14.7 C 8.06 g/m*3 14.7 C 0 km/h
816 20-05-2010 19:12:02 14.8 C 8.23 g/m*3 14.8 C 0 km/h
817 20-05-2010 19:24:03 14.8 C 8.23 g/m*3 14.8 C 0 km/h
818 20-05-2010 19:36:02 14.9 C 8.28 g/m*3 14.9 C 0 km/h
819 20-05-2010 19:48:02 14.8 C 8.11 g/m*3 14.8 C 0 km/h
820 20-05-2010 20:00:02 14.8 C 8.11 g/m*3 14.8 C 0 km/h
821 20-05-2010 20:12:02 14.7 C 8.06 g/m*3 14.7 C 0 km/h
822 20-05-2010 20:24:03 14.4 C 7.91 g/m*3 14.4 C 0 km/h
823 20-05-2010 20:36:02 14.1 C 7.65 g/m*3 14.1 C 0 km/h
824 20-05-2010 20:48:03 13.8 C 7.86 g/m*3 13.8 C 0 km/h
825 20-05-2010 21:00:03 13.5 C 7.95 g/m*3 13.5 C 0 km/h
Sensor: Nr:Datum:Temp:Abs-Feuchte:Windchill:Wind:
Aussen-T/F 826 20-05-2010 21:12:02 13.2 C 7.58 g/m*3 13.2 C 0 km/h
827 20-05-2010 21:24:02 12.8 C 7.5 g/m*3 12.8 C 0 km/h
828 20-05-2010 21:36:02 12.8 C 7.62 g/m*3 12.8 C 0 km/h
829 20-05-2010 21:48:02 12.6 C 7.41 g/m*3 12.6 C 0 km/h
830 20-05-2010 22:00:02 12.5 C 7.37 g/m*3 12.5 C 0 km/h
831 20-05-2010 22:12:02 12.4 C 7.32 g/m*3 12.4 C 0 km/h
832 20-05-2010 22:24:02 12.2 C 7.01 g/m*3 12.2 C 0 km/h
833 20-05-2010 22:36:02 12.2 C 7.12 g/m*3 12.2 C 0 km/h
834 20-05-2010 22:49:03 12.2 C 7.23 g/m*3 12.2 C 0 km/h
835 20-05-2010 23:01:03 12.2 C 7.34 g/m*3 12.2 C 0 km/h
836 20-05-2010 23:13:03 12.1 C 7.51 g/m*3 12.1 C 0 km/h
837 20-05-2010 23:25:03 12.1 C 7.61 g/m*3 12.1 C 0 km/h
838 20-05-2010 23:37:03 11.7 C 7.64 g/m*3 11.7 C 0 km/h
839 20-05-2010 23:49:03 11.4 C 7.6 g/m*3 11.4 C 0 km/h

Legende:
   Min
   Max


Maximal/Minimal-Werte vom 14.05.2010 - 20.05.2010

Sensor Min Max Avg
Temp
(Aussen-T/F)
5.7 °C
18-05-2010  03:22:04
21.7 °C
16-05-2010  17:08:02
11.13 °C
Abs-Feuchte
(Aussen-T/F)
2.47 g/m*3
15-05-2010  16:31:01
10.05 g/m*3
17-05-2010  16:09:01
6.1 g/m*3
Windchill
(Aussen-T/F)
5.7 C
18-05-2010  03:22:04
21.7 C
16-05-2010  17:08:02
11.12 C

Die Daten stammen von einer Davis Vantage Pro 2 Wetter-Station und werden unter Linux mit der Software wview2wettercgi und aufbereitet. Alle Angaben erfolgen ohne Gewähr für ihre Vollständigkeit oder Richtigkeit.
Kontakt: Rainer Krienke krienke@uni-koblenz.de . Meine Webseiten an der Uni Koblenz oder privat.
Version: $Revision: 0.78 $